GW1476 Weather Reports


time (UTC)temp
F
wind
direction
speed
knots
gust
knots
rain 1hr
in
rain 24hr
in
rain mn
in
humidity
%
barometer
mb
20260507073952 52 315 0.0 0.0 0.00 0.00 0.00 99 1015.9
20260507073328 52 0 0.0 0.0 0.00 0.00 0.00 99 1015.9
20260507072748 52 270 0.0 0.0 0.00 0.00 0.00 99 1015.9
20260507072116 52 23 1.7 1.7 0.00 0.00 0.00 99 1015.9
20260507071537 52 203 0.0 0.0 0.00 0.00 0.00 99 1015.5
20260507070310 52 293 0.0 0.0 0.00 0.00 0.00 99 1015.9
20260507065753 53 270 0.0 0.0 0.00 0.00 0.00 99 1015.9
20260507064514 53 180 0.0 0.0 0.00 0.00 0.00 99 1015.9
20260507063913 53 203 0.0 0.0 0.00 0.00 0.00 99 1015.9
20260507063347 53 203 0.0 0.0 0.00 0.00 0.00 99 1015.9
20260507062716 53 203 0.0 0.0 0.00 0.00 0.00 99 1015.9
20260507062130 53 180 0.0 0.0 0.00 0.00 0.00 99 1015.9
20260507061517 53 0 1.7 1.7 0.00 0.00 0.00 99 1016.2
20260507060928 53 23 0.0 0.0 0.00 0.00 0.00 99 1016.2
20260507060317 53 45 0.0 0.0 0.00 0.00 0.00 99 1016.2
20260507055734 53 338 0.0 1.7 0.00 0.00 0.00 99 1016.2
20260507055110 53 338 0.0 0.0 0.00 0.00 0.00 99 1015.9
20260507053926 53 0 2.6 2.6 0.00 0.00 0.00 99 1016.2
20260507052712 54 23 0.0 0.0 0.00 0.00 0.00 99 1016.2
20260507052147 54 23 1.7 1.7 0.00 0.00 0.00 99 1016.2
20260507051524 54 0 0.0 0.9 0.00 0.00 0.00 99 1016.2
20260507050911 54 293 0.0 1.7 0.00 0.00 0.00 99 1016.2
20260507050342 54 293 0.0 0.0 0.00 0.00 0.00 99 1016.2
20260507045750 54 23 0.0 0.0 0.00 0.00 0.00 99 1016.2
20260507045142 54 315 0.0 0.0 0.00 0.00 0.00 99 1016.2
20260507044539 54 293 0.0 0.0 0.00 0.00 0.00 99 1016.2
20260507043954 54 23 0.0 0.0 0.00 0.00 0.00 99 1016.2
20260507041541 54 270 0.0 0.0 0.00 0.00 0.00 99 1016.2
20260507040932 54 270 0.0 0.0 0.00 0.00 0.00 99 1016.2
20260507040332 54 0 0.0 0.0 0.00 0.00 0.00 99 1015.9
20260507035713 55 45 0.0 0.0 0.00 0.00 0.70 99 1016.2
20260507035145 54 270 0.0 0.0 0.00 0.00 0.70 99 1016.2
20260507034518 55 225 0.0 0.0 0.00 0.00 0.70 99 1015.9
20260507033911 54 225 0.0 0.0 0.00 0.00 0.70 99 1015.9
20260507033343 54 225 0.0 0.0 0.00 0.00 0.70 99 1015.9
20260507032121 54 270 0.0 0.0 0.00 0.00 0.70 99 1015.5
20260507030950 55 203 0.0 0.0 0.00 0.00 0.70 99 1015.5
20260507030351 55 248 0.0 0.0 0.00 0.00 0.70 99 1015.9
20260507025726 55 248 0.0 0.0 0.00 0.00 0.70 99 1015.9
20260507024540 55 0 0.0 0.0 0.00 0.00 0.70 99 1016.2
20260507023911 55 45 0.0 0.0 0.00 0.00 0.70 99 1016.2
20260507023354 55 23 1.7 1.7 0.00 0.00 0.70 99 1016.2
20260507022710 55 158 0.0 0.9 0.00 0.00 0.70 99 1015.5
20260507022117 55 338 0.0 0.0 0.00 0.00 0.70 99 1016.2
20260507021541 55 225 0.0 1.7 0.00 0.00 0.70 99 1015.9
20260507020939 55 225 0.0 0.9 0.00 0.00 0.69 99 1016.9
20260507020318 55 338 0.0 2.6 0.00 0.00 0.69 99 1017.2
20260507015728 55 68 1.7 1.7 0.00 0.00 0.69 99 1016.9
20260507015145 55 180 0.0 0.0 0.00 0.00 0.69 99 1015.5
20260507014513 55 180 0.0 0.9 0.00 0.00 0.69 99 1015.9
20260507013930 55 248 0.0 0.0 0.00 0.00 0.69 99 1016.2
20260507013354 55 0 0.9 1.7 0.00 0.00 0.69 99 1016.2
20260507012144 55 270 0.0 0.0 0.00 0.00 0.69 99 1014.5
20260507011532 55 180 0.9 1.7 0.00 0.00 0.69 99 1014.9
20260507010953 55 180 0.0 0.9 0.00 0.00 0.69 99 1015.2
20260507010329 55 45 0.0 0.9 0.00 0.00 0.69 99 1015.2
20260507005135 55 23 0.0 0.0 0.00 0.00 0.69 99 1015.5
20260507004543 55 0 1.7 2.6 0.00 0.00 0.69 99 1015.5
20260507003344 55 203 0.0 0.0 0.00 0.00 0.69 99 1013.8
20260507002728 55 180 0.9 0.9 0.00 0.00 0.69 99 1014.2
20260507001548 56 203 0.0 0.0 0.00 0.00 0.69 99 1014.9
20260507000314 56 338 0.0 0.0 0.00 0.00 0.69 99 1015.2
20260506235728 56 338 0.0 0.0 0.00 0.00 0.69 99 1015.2
20260506235133 56 23 1.7 1.7 0.00 0.00 0.69 99 1014.9
20260506234523 56 248 1.7 1.7 0.00 0.00 0.69 99 1014.5
20260506233939 56 0 0.0 0.0 0.00 0.00 0.69 99 1014.5
20260506233351 56 293 0.0 0.0 0.00 0.00 0.69 99 1014.5
20260506232743 56 180 0.0 0.0 0.00 0.00 0.69 99 1014.5
20260506232149 56 248 0.0 0.0 0.00 0.00 0.69 99 1014.9
20260506231525 56 203 0.0 0.0 0.00 0.00 0.69 99 1014.5
20260506230932 56 270 0.0 0.0 0.00 0.00 0.69 99 1014.9
20260506230329 56 0 0.0 0.0 0.00 0.00 0.68 99 1015.2
20260506225711 56 248 0.0 0.0 0.00 0.00 0.68 99 1015.2
20260506225110 56 0 0.0 0.9 0.00 0.00 0.68 99 1014.9
20260506224517 56 338 0.9 1.7 0.00 0.00 0.64 99 1014.9
20260506223932 56 23 0.0 0.9 0.00 0.00 0.64 99 1015.2
20260506223327 57 45 0.9 1.7 0.00 0.00 0.64 99 1014.9
20260506222722 57 180 0.0 0.0 0.00 0.00 0.63 99 1014.9
20260506222144 57 338 0.0 1.7 0.00 0.00 0.62 99 1014.5
20260506221515 57 23 0.0 1.7 0.00 0.00 0.62 99 1014.2
20260506220917 57 225 0.0 1.7 0.00 0.00 0.57 99 1014.2
20260506220343 58 315 0.9 1.7 0.00 0.00 0.52 99 1014.5
20260506215738 58 0 1.7 1.7 0.00 0.00 0.52 99 1014.2
20260506215141 58 338 0.0 0.9 0.00 0.00 0.52 99 1014.5
20260506214549 58 45 1.7 1.7 0.00 0.00 0.52 99 1014.5
20260506213317 58 23 1.7 1.7 0.00 0.00 0.52 99 1014.2
20260506212713 58 203 1.7 1.7 0.00 0.00 0.52 99 1014.2
20260506212127 58 0 0.9 1.7 0.00 0.00 0.52 99 1014.5
20260506210929 58 45 0.0 1.7 0.00 0.00 0.51 99 1014.5
20260506210347 57 45 1.7 1.7 0.00 0.00 0.51 99 1014.5
20260506204531 57 23 1.7 2.6 0.00 0.00 0.51 99 1014.2
20260506203311 57 23 4.3 4.3 0.00 0.00 0.51 99 1014.2
20260506202713 57 45 3.5 3.5 0.00 0.00 0.51 99 1014.2
20260506201533 57 0 2.6 2.6 0.00 0.00 0.50 99 1014.5
20260506200314 57 23 3.5 4.3 0.00 0.00 0.50 99 1014.2
20260506195752 57 0 3.5 3.5 0.00 0.00 0.50 99 1014.2
20260506194536 57 23 2.6 3.5 0.00 0.00 0.50 99 1014.2
20260506193953 57 23 0.9 1.7 0.00 0.00 0.50 99 1014.2
20260506193353 57 0 2.6 2.6 0.00 0.00 0.49 99 1013.8
20260506192743 57 338 1.7 1.7 0.00 0.00 0.49 99 1013.8
20260506192132 57 23 1.7 4.3 0.00 0.00 0.49 99 1013.5
20260506191543 57 0 2.6 4.3 0.00 0.00 0.49 99 1013.8
20260506190913 57 315 5.2 5.2 0.00 0.00 0.49 99 1013.5
20260506190340 57 248 1.7 5.2 0.00 0.00 0.49 99 1013.5
20260506185719 57 293 1.7 1.7 0.00 0.00 0.49 99 1013.8
20260506184536 58 23 3.5 4.3 0.00 0.00 0.49 99 1013.5
20260506183920 58 23 2.6 4.3 0.00 0.00 0.49 99 1013.5
20260506183330 58 23 4.3 4.3 0.00 0.00 0.49 99 1013.5
20260506182740 58 23 2.6 3.5 0.00 0.00 0.49 99 1013.5
20260506181541 58 23 3.5 4.3 0.00 0.00 0.49 99 1013.5
20260506180936 58 0 3.5 5.2 0.00 0.00 0.48 99 1013.5
20260506180354 59 315 1.7 3.5 0.00 0.00 0.48 99 1013.5
20260506175748 59 315 3.5 4.3 0.00 0.00 0.47 99 1013.2
20260506175127 59 203 1.7 1.7 0.00 0.00 0.47 99 1013.2
20260506174531 59 23 1.7 2.6 0.00 0.00 0.46 99 1013.2
20260506173943 59 0 1.7 6.1 0.00 0.00 0.46 99 1013.2
20260506173318 60 23 5.2 5.2 0.00 0.00 0.46 99 1013.2
20260506172712 59 45 2.6 2.6 0.00 0.00 0.46 99 1013.2
20260506172141 60 0 1.7 4.3 0.00 0.00 0.46 99 1013.2
20260506170953 60 338 2.6 6.1 0.00 0.00 0.46 99 1012.8
20260506170310 60 23 8.7 8.7 0.00 0.00 0.46 99 1012.8
20260506163946 64 45 4.3 4.3 0.00 0.00 0.44 99 1012.5
20260506163334 64 45 2.6 5.2 0.00 0.00 0.43 99 1012.5
20260506162749 64 45 3.5 3.5 0.00 0.00 0.42 99 1012.1
20260506162115 64 0 5.2 7.8 0.00 0.00 0.42 99 1012.1
20260506161546 64 23 5.2 6.1 0.00 0.00 0.41 99 1012.1
20260506160934 64 45 1.7 5.2 0.00 0.00 0.41 99 1012.1
20260506160351 64 0 4.3 5.2 0.00 0.00 0.40 99 1012.1
20260506155711 64 0 1.7 1.7 0.00 0.00 0.38 99 1012.1
20260506155128 64 23 3.5 3.5 0.00 0.00 0.38 99 1012.1
20260506154542 64 23 1.7 3.5 0.00 0.00 0.37 99 1012.1
20260506153930 64 23 2.6 2.6 0.00 0.00 0.37 99 1012.1
20260506153334 64 45 2.6 4.3 0.00 0.00 0.36 99 1012.1
20260506152733 65 23 2.6 2.6 0.00 0.00 0.36 99 1012.1
20260506151533 65 45 2.6 2.6 0.00 0.00 0.36 99 1011.8
20260506150933 65 45 3.5 3.5 0.00 0.00 0.36 99 1011.8
20260506150311 66 45 1.7 2.6 0.00 0.00 0.36 99 1011.8
20260506145750 66 45 1.7 2.6 0.00 0.00 0.36 99 1011.5
20260506145133 66 45 1.7 2.6 0.00 0.00 0.36 99 1011.8
20260506144538 66 23 1.7 2.6 0.00 0.00 0.36 99 1011.5
20260506143929 66 45 3.5 3.5 0.00 0.00 0.36 99 1011.5
20260506143317 66 68 3.5 5.2 0.00 0.00 0.36 99 1011.5
20260506142716 66 0 2.6 2.6 0.00 0.00 0.36 99 1011.5
20260506142117 66 23 2.6 2.6 0.00 0.00 0.36 99 1011.5
20260506141523 66 270 2.6 5.2 0.00 0.00 0.36 99 1011.5
20260506140935 66 113 3.5 5.2 0.00 0.00 0.36 99 1011.5
20260506140343 66 0 1.7 3.5 0.00 0.00 0.36 99 1011.5
20260506135734 66 23 3.5 4.3 0.00 0.00 0.36 99 1011.5
20260506135139 66 45 3.5 6.1 0.00 0.00 0.36 99 1011.5
20260506134512 66 23 0.0 1.7 0.00 0.00 0.36 99 1011.5
20260506133920 66 23 0.0 1.7 0.00 0.00 0.36 99 1011.1
20260506133350 65 0 2.6 2.6 0.00 0.00 0.36 99 1011.1
20260506132744 64 225 0.0 0.0 0.00 0.00 0.36 99 1010.8
20260506132120 64 338 0.0 0.0 0.00 0.00 0.36 99 1011.1
20260506131514 63 0 0.0 0.9 0.00 0.00 0.36 99 1010.8
20260506130920 63 338 0.0 0.9 0.00 0.00 0.36 99 1010.8
20260506125727 62 293 0.9 0.9 0.00 0.00 0.36 99 1010.4
20260506125146 62 248 2.6 2.6 0.00 0.00 0.36 99 1010.4
20260506124511 61 158 1.7 1.7 0.00 0.00 0.36 99 1010.8
20260506123932 61 23 0.0 0.0 0.00 0.00 0.36 99 1010.4
20260506123320 61 225 0.0 0.0 0.00 0.00 0.36 99 1010.4
20260506122715 61 203 0.0 0.0 0.00 0.00 0.36 99 1010.4
20260506122149 61 90 0.0 0.0 0.00 0.00 0.36 99 1010.4
20260506121518 60 203 0.0 0.0 0.00 0.00 0.36 99 1010.4
20260506120310 60 23 0.0 0.0 0.00 0.00 0.36 99 1010.4
20260506115715 60 45 0.0 0.0 0.00 0.00 0.36 99 1010.4
20260506115122 60 45 0.0 0.0 0.00 0.00 0.36 99 1010.1
20260506114533 60 293 0.0 1.7 0.00 0.00 0.36 99 1010.1
20260506113948 60 203 0.0 0.9 0.00 0.00 0.36 99 1009.8
20260506112733 60 293 0.0 0.0 0.00 0.00 0.35 99 1010.1
20260506111515 59 68 0.9 1.7 0.00 0.00 0.33 99 1009.4
20260506110913 59 23 0.0 2.6 0.00 0.00 0.32 99 1009.4
20260506105711 59 45 0.9 0.9 0.00 0.00 0.30 99 1009.4
20260506105146 59 23 0.9 2.6 0.00 0.00 0.28 99 1009.1
20260506103921 59 180 0.0 1.7 0.00 0.00 0.28 99 1008.8
20260506103351 59 293 1.7 1.7 0.00 0.00 0.28 99 1009.1
20260506102708 59 203 1.7 1.7 0.00 0.00 0.28 99 1009.1
20260506102109 58 225 0.0 1.7 0.00 0.00 0.28 99 1009.1
20260506100950 59 203 0.0 2.6 0.00 0.00 0.28 99 1009.1
20260506095711 58 203 3.5 3.5 0.00 0.00 0.28 99 1009.1
20260506095149 58 135 1.7 3.5 0.00 0.00 0.28 99 1009.1
20260506094538 59 203 0.0 1.7 0.00 0.00 0.28 99 1009.1
20260506093321 58 225 0.9 1.7 0.00 0.00 0.26 99 1009.4
20260506092747 59 270 0.0 0.0 0.00 0.00 0.25 99 1009.4
20260506092113 59 248 0.0 1.7 0.00 0.00 0.24 99 1009.4
20260506090323 59 270 0.0 1.7 0.00 0.00 0.22 99 1009.4
20260506085736 59 293 2.6 2.6 0.00 0.00 0.21 99 1009.4
20260506085114 59 23 0.9 1.7 0.00 0.00 0.20 99 1009.4
20260506083926 59 225 0.9 1.7 0.00 0.00 0.20 99 1009.4
20260506083337 59 293 2.6 2.6 0.00 0.00 0.20 99 1009.4
20260506082737 59 270 2.6 2.6 0.00 0.00 0.20 99 1009.1
20260506082142 59 225 3.5 4.3 0.00 0.00 0.20 99 1009.4
20260506081514 59 203 0.9 1.7 0.00 0.00 0.20 99 1009.4
20260506080930 59 203 1.7 1.7 0.00 0.00 0.20 99 1009.4
20260506080318 59 270 6.1 6.1 0.00 0.00 0.20 99 1009.8